Terminal Aerodrome Forecast
Issued by NWS Twin Cities, MN

Home | Current Version | Previous Version | Graphics & Text | Print | Product List | Glossary On
Versions: 1 2 3 4 5 6 7 8 9 10 11 12 13 14 15 16 17 18 19 20 21 22 23 24 25 26 27
326
FTUS43 KMPX 030251 AAA
TAFMSP
TAF AMD
KMSP 030251Z 0303/0406 01020G30KT 1SM -SN BLSN OVC014
     FM030900 35024G30KT 2SM -SN BLSN OVC015
     FM031200 34018G28KT 3SM BLSN OVC015
     FM031800 32016G24KT 6SM BLSN BKN020
     FM032100 31014G22KT P6SM SCT025=

USA.gov is the U.S. government's official web portal to all federal, state and local government web resources and services.